This is the latest recevied weather packets stored in our database for station/object KB2SKP. If no packets are shown the sender has not sent any weather packets the latest 10 day(s).
| Time | Temp. | Humidity | Pressure | Rain* | Wind** | Luminosity | Snow |
|---|---|---|---|---|---|---|---|
| 1777400729 | 17.22° C | 49% | 1015.6 hPa | 0 mm | - | 148 W/m² | - |
| 1777400427 | 17.22° C | 49% | 1015.4 hPa | 0 mm | - | 142 W/m² | - |
| 1777400127 | 16.67° C | 48% | 1015.7 hPa | 0 mm | - | 166 W/m² | - |
| 1777399824 | 16.67° C | 49% | 1015.9 hPa | 0 mm | - | 120 W/m² | - |
| 1777399521 | 16.67° C | 52% | 1015.9 hPa | 0 mm | - | 122 W/m² | - |
| 1777399218 | 16.67° C | 52% | 1015.8 hPa | 0 mm | - | 119 W/m² | - |
| 1777398916 | 16.67° C | 50% | 1015.8 hPa | 0 mm | - | 118 W/m² | - |
| 1777398612 | 17.22° C | 54% | 1015.9 hPa | 0 mm | - | 135 W/m² | - |
| 1777398309 | 17.22° C | 53% | 1016.5 hPa | 0 mm | - | 162 W/m² | - |
| 1777398007 | 17.22° C | 52% | 1016.6 hPa | 0 mm | - | 156 W/m² | - |
| 1777397703 | 16.67° C | 54% | 1016.3 hPa | 0 mm | - | 185 W/m² | - |
| 1777397398 | 16.67° C | 58% | 1016.4 hPa | 0 mm | - | 152 W/m² | - |
| 1777397095 | 16.11° C | 55% | 1016.3 hPa | 0 mm | - | 145 W/m² | - |
| 1777396791 | 16.67° C | 56% | 1016.4 hPa | 0 mm | - | 130 W/m² | - |
| 1777396489 | 16.67° C | 61% | 1016.6 hPa | 0 mm | - | 153 W/m² | - |
| 1777396185 | 16.67° C | 62% | 1016.6 hPa | 0 mm | - | 109 W/m² | - |
| 1777395880 | 16.11° C | 64% | 1016.9 hPa | 0 mm | - | 110 W/m² | - |
| 1777395576 | 15.56° C | 69% | 1016.7 hPa | 0 mm | - | 139 W/m² | - |
| 1777395273 | 15° C | 70% | 1016.7 hPa | 0 mm | - | 139 W/m² | - |
| 1777394971 | 15° C | 70% | 1016.7 hPa | 0 mm | - | 20 W/m² | - |
| 1777394667 | 14.44° C | 72% | 1017 hPa | 0 mm | - | 90 W/m² | - |
| 1777394363 | 15° C | 72% | 1016.7 hPa | 0 mm | - | 53 W/m² | - |
| 1777394060 | 15° C | 71% | 1016.9 hPa | 0 mm | - | 41 W/m² | - |
| 1777393755 | 15° C | 71% | 1017 hPa | 0 mm | - | 57 W/m² | - |
| 1777393450 | 15° C | 73% | 1017.4 hPa | 0 mm | - | 73 W/m² | - |
* Rain latest hour (hover to see other rain measurements)
** Current wind speed in m/s (hover to see current wind gust speed)